This is the latest recevied weather packets stored in our database for station/object DL7KAW-10. If no packets are shown the sender has not sent any weather packets the latest 10 day(s).
| Time | Temp. | Humidity | Pressure | Rain* | Wind** | Luminosity | Snow |
|---|---|---|---|---|---|---|---|
| 1788540738 | 20° C | 75% | 1004.6 hPa | - | - | - | - |
| 1788539838 | 20° C | 75% | 1004.6 hPa | - | - | - | - |
| 1788538938 | 20° C | 75% | 1004.8 hPa | - | - | - | - |
| 1788538038 | 20° C | 75% | 1004.8 hPa | - | - | - | - |
| 1788537138 | 20° C | 76% | 1004.7 hPa | - | - | - | - |
| 1788536237 | 20° C | 74% | 1003.7 hPa | - | - | - | - |
| 1788535337 | 20° C | 75% | 1004.3 hPa | - | - | - | - |
| 1788534437 | 20° C | 75% | 1004.2 hPa | - | - | - | - |
| 1788533537 | 20° C | 74% | 1004.2 hPa | - | - | - | - |
| 1788532637 | 20° C | 77% | 1004.2 hPa | - | - | - | - |
| 1788531737 | 20° C | 76% | 1004.3 hPa | - | - | - | - |
| 1788530837 | 20° C | 76% | 1002.7 hPa | - | - | - | - |
| 1788529937 | 20° C | 75% | 1002.2 hPa | - | - | - | - |
| 1788529036 | 20° C | 76% | 1002.2 hPa | - | - | - | - |
| 1788528135 | 20° C | 77% | 1002.7 hPa | - | - | - | - |
| 1788527235 | 20° C | 75% | 1002.8 hPa | - | - | - | - |
| 1788526362 | 20° C | 76% | 1003.2 hPa | - | - | - | - |
| 1788525435 | 20° C | 78% | 1003.4 hPa | - | - | - | - |
| 1788524535 | 20° C | 78% | 1003.6 hPa | - | - | - | - |
| 1788523635 | 20° C | 78% | 1004 hPa | - | - | - | - |
| 1788522735 | 20° C | 80% | 1004.3 hPa | - | - | - | - |
| 1788521835 | 20° C | 79% | 1004.6 hPa | - | - | - | - |
| 1788520934 | 20° C | 80% | 1004.9 hPa | - | - | - | - |
| 1788520034 | 19.44° C | 80% | 1005.1 hPa | - | - | - | - |
| 1788519134 | 20° C | 80% | 1005.1 hPa | - | - | - | - |
* Rain since midnight (hover to see other rain measurements)
** Current wind speed in m/s (hover to see current wind gust speed)